Lid_Strength_Index
4 4 4 4 4 4 4 4 4 4 4 4 4 4 4 4 4 6 9 6 5 3 2 3 3 4 6 8 8 9 12 13 12 12 11 8 9 8 8 9 9 8 5 3 2
4 4 4 4 4 4 4 4 4 4 4 4 4 4 4 4 7 8 5 4 3 3 5 6 6 6 8 8 9 10 12 12 11 10 10 9 9 8 8 9 10 8 7 3 3
5 5 5 5 5 5 5 5 4 4 4 4 4 4 5 5 10 10 3 2 3 3 4 5 6 8 10 9 10 10 12 10 11 10 9 9 9 8 9 9 8 9 8 3 3
5 5 5 5 5 5 5 5 5 5 5 5 5 5 5 7 14 6 1 3 3 3 4 6 8 9 10 11 10 12 10 10 9 9 9 9 8 9 8 8 6 6 7 3 4
6 5 5 5 5 5 5 5 5 5 5 5 5 5 6 10 10 6 2 5 5 3 5 7 9 9 11 10 11 12 11 10 9 9 9 9 9 8 8 7 6 6 6 6 3
6 6 6 5 5 5 5 5 5 5 5 5 5 5 8 13 6 5 6 7 6 4 5 6 8 8 10 11 11 10 11 10 10 10 9 10 10 9 8 6 6 6 6 6 3
6 6 6 6 6 6 5 5 5 5 5 5 5 7 10 11 6 6 6 6 5 3 5 4 6 8 8 11 9 10 12 12 11 10 11 10 11 11 9 7 7 6 6 5 3
6 6 6 6 6 5 5 5 5 5 4 4 4 7 12 6 5 6 6 7 6 6 6 5 4 7 9 9 11 11 11 13 11 11 11 11 13 10 8 9 8 7 6 6 5
6 5 6 5 5 5 5 5 4 4 4 3 5 7 11 5 7 5 5 8 7 6 6 5 5 7 8 11 12 12 14 14 12 10 11 12 12 9 8 8 9 7 6 6 5
6 5 6 5 5 5 4 4 4 4 4 4 5 9 8 9 6 5 4 6 8 7 8 8 8 9 10 11 15 14 15 14 14 12 11 11 12 10 9 9 8 7 7 7 6
6 5 5 5 5 5 5 6 9 10 9 9 9 9 8 5 4 4 4 6 7 9 12 9 11 13 11 10 10 11 13 13 12 11 12 12 11 11 9 9 9 8 7 7 6
6 5 5 4 4 4 6 9 9 9 13 9 9 8 6 5 9 7 4 7 8 10 9 10 13 9 8 9 10 11 13 13 12 11 12 11 12 10 9 9 8 7 7 6 6
5 5 4 4 3 6 7 8 5 5 10 10 8 8 7 6 9 7 5 7 8 9 9 11 10 8 9 10 11 11 12 13 13 11 11 11 12 11 9 8 8 7 6 6 6
5 4 4 4 5 6 6 5 4 4 12 10 8 6 4 4 8 4 4 6 8 10 9 9 7 8 9 11 10 13 10 11 12 13 15 11 15 12 10 9 8 7 7 6 5
4 4 4 4 6 7 4 3 2 4 18 8 7 2 4 7 6 6 3 5 9 9 9 11 10 10 11 10 9 11 8 10 11 12 12 13 14 12 11 10 9 7 6 5 5
4 3 3 5 5 4 2 2 4 13 17 10 7 7 8 7 6 5 6 4 6 9 9 9 7 8 9 8 8 7 9 9 10 11 15 13 14 13 12 10 9 7 6 5 5
4 3 4 4 5 2 2 3 12 17 9 11 10 8 9 10 9 7 9 10 12 15 15 12 10 8 7 10 9 9 11 15 16 16 16 12 14 12 10 8 7 7 6 6 5
4 4 5 3 2 3 3 8 16 11 13 9 10 10 12 9 10 10 10 12 9 10 13 15 17 10 8 9 11 10 11 14 19 18 16 13 15 13 8 8 7 7 6 5 5
4 5 5 3 2 2 6 13 14 12 10 12 11 13 12 11 12 12 11 11 10 10 14 15 15 8 8 7 8 10 12 9 12 12 15 14 12 11 9 9 8 8 7 7 6
6 7 5 2 1 2 8 12 11 8 9 9 14 12 15 13 14 13 12 10 11 9 8 13 15 10 8 8 7 9 8 12 11 16 17 14 13 12 12 11 9 9 8 7 6
6 8 4 2 1 5 12 11 9 7 8 11 12 13 13 14 13 14 12 9 9 10 9 11 14 14 9 13 12 11 11 10 10 12 15 16 13 10 11 10 10 9 8 7 7
7 10 3 2 8 7 10 9 7 8 7 9 9 11 12 12 13 14 14 11 8 9 13 10 13 17 13 10 8 8 10 10 13 15 12 12 16 10 9 9 9 9 8 7 7
8 8 3 3 11 11 9 9 8 9 9 9 11 9 9 11 14 12 12 8 8 10 12 11 14 18 17 14 11 11 10 9 9 10 13 16 18 10 9 9 8 8 8 7 7
8 10 7 6 6 10 11 10 11 8 8 9 10 8 10 12 11 13 12 9 9 9 8 9 13 15 17 15 14 14 11 9 10 12 13 14 16 13 11 10 9 8 7 7 7
7 9 8 11 11 10 9 10 11 11 9 8 10 10 11 13 13 12 11 11 9 8 9 10 15 13 12 12 12 12 11 11 11 10 12 14 14 12 11 10 9 7 7 8 7
8 9 7 9 9 10 10 11 12 11 11 11 11 11 10 13 12 13 12 12 12 10 11 10 15 13 14 12 12 14 10 10 10 11 12 12 14 9 9 8 8 8 7 8 9
5 4 7 10 10 12 12 12 12 10 10 10 11 12 12 11 10 10 9 10 10 12 13 13 14 15 18 13 13 16 11 10 10 9 11 14 12 9 10 9 8 8 9 9 9